TIROS 8 DEB, 19396

Orbit data source: Space-Track

TIROS 8 DEB, 19396 is space debris in LEO originally from a launch on Sat, 21 Dec 1963 UTC launched from the Air Force Western Test Range (AFWTR). Debris objects in space refer to the collection of defunct objects orbiting the Earth. Examples of debris include non-operational satellites, rocket bodies, and fragments generated from explosions, collisions, or faulty payload assembly.

Loading next visibility...
Identifier
19396, 1963-054E
Orbit
LEO
Last TLE update
1 day ago
Origin
Manufacturer
Unknown
Mission
Spacecraft
Bus & Motor
Unknown
Mass
Unknown
Launch date (UTC)
1963-12-21 (62 years ago)
Launch vehicle
Unknown
Launch site
Air Force Western Test Range (AFWTR)
Object type
Payload
Rocket body
Debris
Shape & HBR
Unknown
Radar Cross Section
Small (<0.1 m²)

Expand to show TLE details & history

TLE from 1 day ago
0 TIROS 8 DEB
1 19396U 63054E   25199.29504687  .00004458  00000-0  29073-3 0  9998
2 19396  58.4667 148.7346 0012553 340.7277  19.3302 15.09600239984032
Epoch: 2025-07-18T07:04Z
TLE epoch observation values (Epoch: 2025-07-18T07:04:52.049Z)
Latitude
-0.0001°
Longitude
106.16911°
Altitude
530.668 km
Speed
7.603 km/s
True Right ascension
09h 54m 56s
True Declination
0° 00' 00"
Sunlit
Object was in daylight at epoch
Visualization orbit readout
Latitude
-27.92474°
Longitude
83.16315°
Altitude
537.91 km
Speed
7.598 km/s
Apparent Right ascension
08h 44m 18s
Apparent Declination
-33° 39' 06"
Sunlit
Object is in daylight
Visualization observer readout
Local Sidereal Time
21:11:01
Azimuth
42.548° NE
Elevation
-81.767°
Doppler factor
1
Orbital elements
Apogee altitude
545.534 km
Perigee altitude
528.173 km
Semi-major axis
6,914.991 km
Eccentricity
0.00126
Inclination
58.4667°
RAAN
148.7346°
Arg. of periapsis
340.7277°
True anomaly
19.37789°
Mean anomaly
19.3302°
Eccentric anomaly
19.35404°
Mean motion
3.77447 °/min
Orbital period
95.38 mins
BSTAR
0.00029073
Loading maneuver chart data...
Loading SW <> Apogee altitude chart data...
Loading historical data...
Loading historical data...
Loading historical data...
Loading historical data...
Loading historical data...
Loading historical data...
Loading historical data...
Other satellites on launch #54 in the year 1963 (1963-12-21 UTC)
|